Regional Weather Roundup
Issued by NWS Wilmington, NC

Home | Current Version | Previous Version | Text Only | Print | Product List | Glossary On
Versions: 1 2 3 4 5 6 7 8 9 10 11 12 13 14 15 16 17 18 19 20 21 22 23 24 25 26 27 28 29 30 31 32 33 34 35 36 37 38 39 40 41 42 43 44 45 46 47 48 49 50
000
ASUS42 KILM 290810
RWRILM
RWRILM
REGIONAL HOURLY WEATHER ROUNDUP
NATIONAL WEATHER SERVICE WILMINGTON NC
300 AM EST MON DEC 29 2014

NOTE: "FAIR" INDICATES FEW OR NO CLOUDS BELOW 12,000 FEET WITH NO
SIGNIFICANT WEATHER AND/OR OBSTRUCTIONS TO VISIBILITY.

...............WFO WILMINGTON COUNTY WARNING AREA...............

......COASTAL NC AND SC COUNTIES......

CITY           SKY/WX    TMP DP  RH WIND       PRES   REMARKS
WILMINGTON     CLOUDY    60  59  96 CALM      30.04F
SOUTHPORT      CLOUDY    57  56  97 CALM      30.04F
N MYRTLE BEACH CLOUDY    58  56  93 CALM      30.02F
MYRTLE BEACH   CLOUDY    61  57  88 SE3       30.04F

......INLAND NC AND SC COUNTIES.......

CITY           SKY/WX    TMP DP  RH WIND       PRES   REMARKS
LUMBERTON      CLOUDY    60  58  92 CALM      30.02F FOG
ELIZABETHTOWN  CLOUDY    60  60 100 CALM      30.03F
WHITEVILLE     CLOUDY    60  58  94 CALM      30.02F
FLORENCE       CLOUDY    60  58  92 CALM      30.01F
DARLINGTON     CLOUDY    57  55  94 CALM      30.03F

....................REST OF NORTH CAROLINA......................

.........EASTERN NC.........

CITY           SKY/WX    TMP DP  RH WIND       PRES   REMARKS
CAPE HATTERAS  CLOUDY    59  58  96 NW6       30.05S
JACKSONVILLE   CLOUDY    59  55  88 CALM      30.05F VSB 3/4
MOREHEAD CITY  CLOUDY    60  59  96 CALM      30.05F
KENANSVILLE    FOG       58  58  98 CALM      30.04F VSB 3/4
NEW BERN       FOG       61  58  90 CALM      30.05F VSB 3/4
ELIZABETH CITY HAZE      60  55  83 CALM      30.05S VSB 1/2

.........CENTRAL NC.........

CITY           SKY/WX    TMP DP  RH WIND       PRES   REMARKS
RALEIGH DURHAM LGT RAIN  55  53  93 VRB5      30.06S FOG
ROCKY MOUNT    LGT RAIN  54  53  97 CALM      30.07R VSB 1
ROANOKE RAPIDS NOT AVBL
FAYETTEVILLE   FOG       58  57  97 CALM      30.03F VSB 3/4
HOFFMAN        LGT RAIN  55  55 100 S1        30.05S VSB 1/2

.........WESTERN NC.........

CITY           SKY/WX    TMP DP  RH WIND       PRES   REMARKS
CHARLOTTE      RAIN      55  53  93 N7        30.04F VSB 1/2
GREENSBORO     LGT RAIN  50  50 100 N5        30.06R FOG
HICKORY        NOT AVBL
BOONE          NOT AVBL
ASHEVILLE      NOT AVBL

.....................REST OF SOUTH CAROLINA.....................

.........EASTERN SC.........

CITY           SKY/WX    TMP DP  RH WIND       PRES   REMARKS
CHARLESTON     PTCLDY    59  59 100 S3        30.04S FOG
BEAUFORT MCAS  MOCLDY    59  57  93 SE3       30.04S FOG
HILTON HEAD    PTCLDY    61  61 100 S6        30.05S

.........CENTRAL SC.........

CITY           SKY/WX    TMP DP  RH WIND       PRES   REMARKS
COLUMBIA       CLOUDY    59  58  96 N3        30.01S FOG
ORANGEBURG     MOCLDY    61  59  93 CALM      30.02F
SUMTER SHAW    CLOUDY    59  58  97 CALM      30.00F

.........WESTERN SC.........

CITY           SKY/WX    TMP DP  RH WIND       PRES   REMARKS
GREENVILLE     NOT AVBL
ROCK HILL      RAIN      55  55 100 N8        30.03S FOG
ANDERSON       CLOUDY    55  55 100 CALM      30.03R FOG
CLEMSON        NOT AVBL
GREENWOOD      HVY RAIN  57  56  96 CALM      30.04R FOG


...................COASTAL AND OFFSHORE REPORTS..................

................LOCAL PIERS AND NC RESERVE................


STATION/POSITION TIME  SKY/WX   TEMP    WIND        PRES    VSBY
                                AIR SEA DIR/SP/G
                 (UTC)          (F)     (DEG/KT/KT) (MB)    (MI)
JOHNY MRCER PIER 0800            61 56   20/  1/  2 1016.6F
NC RESRV MASNBRO 0700            60        CALM     1018.0S
OCEAN CREST PIER 0800            58 56   CALM  /  1 1016.6F
SPRINGMAID  PIER 0800            57 53  180/  2/  2 1016.8F


................COASTAL AND OFFSHORE BUOYS................


STATION/POSITION TIME  SKY/WX   TEMP    WIND        PRES    VSBY
                                AIR SEA DIR/SP/G
                 (UTC)          (F)     (DEG/KT/KT) (MB)    (MI)
DIMNDSHOAL 41025 0800            64                 1017.4F
WVE H/P(F/S)=  3/13

CAPE LOOKOUT     0700            58     290/  4/  5 1017.4F
ONSLOW BAY 41036 0800            60 60  280/  4/  6 1017.7F
WVE H/P(F/S)=  3/ 5 WND WVE H/P(F/S)=  2/ 4 SWL H/P/D(F/S/D)=  2/190/ 5

5 WRITEBCH 41038 NOT AVBL
MASONBORO  41110 0800               54                N/A
WVE H/P(F/S)=  2/13 WND WVE H/P(F/S)=  2/ 4 SWL H/P/D(F/S/D)=  2/100/13

WILM HARBR 41108 0800               60                N/A
WVE H/P(F/S)=  2/14 WND WVE H/P(F/S)=  2/ 5 SWL H/P/D(F/S/D)=  2/130/14

27WRITEBCH 41037 0700            57 60  280/  4/  6 1018.8S
FRYING PAN 41013 0800            63 68  260/  4/  6 1017.7F
WVE H/P(F/S)=  3/13 WND WVE H/P(F/S)=  2/ 4 SWL H/P/D(F/S/D)=  3/ 90/13

SUNST NRSH 41024 0700            57      CALM  /  2   N/A
CAPRS NRSH 41029 0700            58     230/  6/  8   N/A
EDISTO     41004 0800            72 73  220/ 14/ 16 1016.7F
WVE H/P(F/S)=  3/13 WND WVE H/P(F/S)=  2/ 4 SWL H/P/D(F/S/D)=  2/13



..........OFFSHORE BUOYS BEYOND 100 NM OFFSHORE...........
.....IN A TRIANGLE---HAT TO BERMUDA TO BAHAMAS TO HAT.....


STATION/POSITION TIME  SKY/WX   TEMP    WIND        PRES    VSBY
                                AIR SEA DIR/SP/G
                 (UTC)          (F)     (DEG/KT/KT) (MB)    (MI)
150E HAT   41001 NOT AVBL
W BERMUDA  41048 0725            72 73  220/ 16/ 17 1021.3R
WVE H/P(F/S)=  4/11 WND WVE H/P(F/S)=  3/ 5 SWL H/P/D(F/S/D)=  2/100/11

ATLANTIC S 41049 0733            74 76   90/ 12/ 14 1022.9F
WVE H/P(F/S)=  6/12 WND WVE H/P(F/S)=  3/ 5 SWL H/P/D(F/S/D)=  5/ 50/12

E BAHAMAS  41046 0654            76 78   80/ 12/ 16 1020.0F
WVE H/P(F/S)=  7/13 WND WVE H/P(F/S)=  3/ 5 SWL H/P/D(F/S/D)=  7/ 40/13

NE BAHAMAS 41047 0653            75 78  140/ 12/ 14 1021.8S
WVE H/P(F/S)=  5/13 WND WVE H/P(F/S)=  2/ 5 SWL H/P/D(F/S/D)=  3/ 40/13

120E CANVRL41010 0800            76 77  180/ 10/ 12 1019.8F
WVE H/P(F/S)=  4/14 WND WVE H/P(F/S)=  2/ 5 SWL H/P/D(F/S/D)=  3/ 90/14


END


USA.gov is the U.S. government's official web portal to all federal, state and local government web resources and services.